Temperature
28 28 27 26 27 27 27 27 26 25 24 24 22 21 20 20 19 19 19 19 18 17 17 16 16 15 15 14 14 14 14 14 15 15 15 15 16 16 16 17 17 17 17 18
28 27 26 27 27 27 27 26 26 25 24 24 22 21 21 20 19 19 18 18 17 17 16 16 15 15 14 14 14 14 14 14 14 14 14 14 15 15 16 16 16 17 17 17
27 26 26 27 27 26 26 25 24 24 24 23 23 21 20 20 20 19 18 18 17 16 15 15 14 14 14 13 13 13 13 13 13 14 14 14 14 14 15 15 16 16 16 17
26 26 26 26 26 24 24 24 24 23 23 23 23 21 20 20 19 19 18 17 16 16 15 14 14 14 13 13 13 12 13 13 13 13 13 14 14 14 14 15 15 16 16 16
25 25 25 25 24 23 24 24 23 23 23 23 23 22 19 20 19 18 18 17 16 15 15 14 14 13 13 13 12 12 12 13 13 13 13 13 13 14 14 14 15 15 15 16
25 25 24 24 24 24 23 24 24 24 23 22 23 22 19 19 18 18 18 17 16 15 15 14 14 13 13 12 12 12 12 12 12 13 13 13 13 13 14 14 14 15 15 15
24 25 24 24 24 24 24 23 23 22 21 22 23 22 19 19 19 18 17 17 16 15 15 14 14 13 13 12 12 12 12 12 12 13 13 13 13 13 13 13 14 14 15 15
26 24 24 23 23 22 24 23 22 21 22 22 22 21 19 19 19 18 17 17 16 16 15 14 14 13 13 13 12 12 12 12 12 12 12 12 13 13 13 13 14 14 14 14
27 23 23 23 23 23 23 23 23 22 23 23 22 20 19 19 19 18 18 17 16 16 15 15 14 14 13 13 13 12 12 12 12 12 12 12 12 12 13 13 13 13 14 14
26 24 23 23 22 23 23 22 23 22 21 21 22 21 19 19 18 18 18 17 16 16 15 15 14 14 13 13 13 13 12 12 12 12 12 12 12 12 13 13 13 13 13 14
26 25 23 23 23 22 23 23 23 22 22 20 19 19 20 18 18 18 18 17 16 16 15 15 14 14 14 13 13 13 12 12 12 12 12 12 12 12 12 12 12 13 13 13
25 24 25 23 22 22 22 21 21 20 21 22 20 19 20 19 18 18 18 17 17 16 16 15 15 14 14 13 13 13 12 12 12 12 11 11 12 12 12 12 12 12 12 13
24 24 24 22 21 21 22 21 21 21 21 22 20 19 20 20 19 18 18 17 17 16 16 15 15 14 14 14 13 13 12 12 12 12 11 11 11 11 11 11 12 12 12 12
21 24 24 22 22 23 22 22 21 21 21 22 21 20 20 20 19 18 18 17 17 17 16 16 15 15 14 14 13 13 13 12 12 12 11 11 11 11 11 11 11 12 12 12
23 24 24 24 23 23 22 22 22 21 21 21 21 21 21 20 19 19 18 18 17 17 17 16 16 15 15 14 14 13 13 12 12 12 11 11 11 11 11 11 11 11 11 11
24 24 24 24 24 23 23 23 22 22 21 21 21 21 21 20 19 19 19 18 18 17 17 16 16 15 15 15 14 13 13 13 12 12 11 11 11 11 11 11 11 11 11 11
25 24 24 24 24 23 23 24 23 23 22 22 21 22 21 20 19 19 19 18 18 17 17 16 16 15 15 15 14 14 13 13 12 12 11 11 11 11 11 11 11 10 10 11
25 24 24 24 24 23 24 25 24 23 23 23 22 22 21 20 19 19 18 18 18 17 17 16 16 16 15 15 14 14 14 13 12 12 11 11 11 11 10 10 10 10 10 10
24 23 23 24 24 25 23 24 23 22 22 23 22 22 21 20 19 19 19 18 18 17 16 16 16 16 15 15 15 14 14 13 12 12 11 11 11 11 10 10 10 10 10 10
23 23 22 23 23 24 24 24 23 23 22 24 23 22 21 20 19 19 19 18 17 17 16 16 16 16 15 15 14 14 14 13 12 11 11 11 11 11 10 10 9 9 10 10
22 22 22 22 23 25 23 23 23 21 23 24 23 22 21 20 20 19 19 18 17 16 16 16 16 15 15 15 14 14 14 13 12 11 11 11 11 10 10 10 10 10 10 10
25 25 24 24 23 23 22 22 23 24 24 23 23 22 21 21 20 19 18 18 17 17 16 16 16 15 15 15 14 14 13 13 12 11 11 11 11 11 10 10 10 10 10 10
25 26 25 25 24 23 22 23 24 24 24 23 23 22 21 21 20 19 18 18 17 17 16 16 16 15 15 15 14 14 13 13 12 12 12 11 11 11 11 10 10 10 10 10
27 26 25 25 25 26 24 23 23 23 23 23 23 22 21 20 20 19 18 18 17 17 17 16 16 16 16 15 14 14 13 13 12 12 12 12 11 11 11 11 10 10 10 10
26 25 25 25 25 26 25 24 23 23 22 22 22 22 21 20 20 19 19 18 18 17 17 16 16 16 16 15 15 14 14 13 13 13 13 12 12 11 11 11 10 10 10 10
26 26 25 24 26 26 25 24 23 22 22 22 21 21 21 20 20 19 19 18 18 18 17 17 16 16 16 16 15 15 14 13 13 14 13 13 12 12 11 11 11 11 10 10
Wind_Speed
1 2 5 9 8 9 10 10 9 5 5 3 3 4 5 4 5 7 9 10 10 11 12 11 11 10 10 10 11 10 9 8 6 4 4 4 4 4 4 4 6 8 9 8
4 3 6 5 5 9 9 9 8 4 4 2 2 4 6 5 5 6 8 10 11 12 13 12 12 11 11 10 10 11 10 9 8 6 5 4 5 5 5 4 5 8 9 8
4 7 4 5 6 9 10 6 8 6 2 4 5 5 7 6 5 6 7 9 11 12 13 13 12 11 11 11 11 12 10 10 9 8 5 5 5 5 5 5 5 6 7 8
5 3 4 5 5 8 8 7 6 7 6 5 5 3 8 5 4 7 8 9 10 10 11 11 11 12 12 12 11 12 11 11 10 9 7 7 6 6 6 5 5 5 6 6
5 4 6 6 6 7 7 7 7 8 8 9 6 3 7 4 6 8 9 9 10 10 10 10 11 11 11 11 10 10 11 11 10 9 8 7 6 6 6 6 6 6 5 5
6 4 5 6 4 3 6 8 9 8 8 7 3 2 5 5 7 9 9 9 9 9 9 9 10 10 9 9 9 9 9 9 9 9 8 7 7 7 7 7 6 5 4 4
7 6 4 4 7 4 6 8 5 4 5 1 3 2 6 7 6 7 8 8 8 8 9 9 9 9 9 9 9 9 9 9 10 10 9 8 8 7 7 7 6 5 4 3
6 6 5 5 6 6 7 6 6 6 4 2 3 3 6 6 4 4 5 6 7 8 7 8 8 8 8 9 8 8 9 9 9 9 9 8 8 6 5 6 5 4 3 3
5 7 5 3 4 5 7 6 5 5 9 6 4 6 7 5 3 4 6 7 7 7 7 7 7 7 7 7 7 7 7 8 9 9 9 8 8 7 7 7 6 5 4 3
6 4 5 2 4 4 2 5 5 5 6 5 1 3 4 4 4 6 6 7 7 6 7 7 6 6 6 6 5 6 6 7 7 8 8 8 7 7 6 6 7 7 7 5
7 3 6 4 1 5 5 3 4 5 2 3 4 3 5 4 3 4 5 6 6 6 5 5 5 5 6 6 6 6 7 7 7 8 7 7 7 7 7 7 7 7 7 7
3 5 3 6 6 2 2 5 5 5 5 2 3 3 5 3 1 2 4 5 5 5 4 5 5 5 5 6 7 7 7 7 7 7 8 8 8 8 8 8 8 7 7 7
5 5 1 5 5 4 2 1 3 5 6 3 2 4 5 3 2 2 3 4 4 4 4 4 4 4 5 5 5 6 6 6 6 7 8 8 9 9 9 9 8 8 8 8
4 4 3 5 5 2 0 1 2 5 5 5 2 3 5 4 2 1 2 3 3 4 4 4 3 3 3 4 4 5 6 6 6 7 8 8 9 9 9 9 9 9 9 9
5 4 2 2 1 2 4 4 5 6 7 6 5 3 0 4 3 0 1 2 4 5 5 5 4 4 4 4 4 5 5 5 6 7 7 8 8 8 8 8 9 9 9 10
4 5 3 6 6 5 9 9 8 7 7 7 6 4 4 5 4 3 1 2 3 4 5 5 5 5 5 4 5 5 5 5 6 7 7 7 7 8 8 8 8 8 8 8
4 5 5 5 6 6 8 7 9 8 6 6 6 2 7 5 4 2 1 1 2 3 4 5 4 4 3 4 4 4 4 5 6 6 6 7 7 7 8 9 8 8 8 7
4 4 4 7 6 5 4 4 1 5 8 7 6 2 5 4 3 3 3 2 2 3 4 4 4 3 3 4 4 3 4 6 6 6 6 6 7 7 7 7 7 7 6 6
5 4 4 4 6 5 7 4 3 4 7 9 9 7 6 5 5 7 7 3 1 3 3 3 3 3 4 5 4 4 5 6 6 6 6 6 7 7 7 7 6 5 5 5
4 5 4 5 5 4 6 8 4 2 5 8 10 9 9 8 6 4 8 6 3 2 2 3 3 3 4 4 3 3 5 7 7 6 6 6 5 6 7 7 6 5 4 5
5 5 6 6 5 2 8 8 5 2 4 5 7 9 10 10 4 6 8 7 4 3 2 2 3 2 3 3 3 3 6 7 6 5 4 5 5 5 5 5 5 5 5 5
4 3 4 4 4 0 9 7 5 4 2 1 5 8 10 8 6 7 7 6 5 4 4 1 2 1 1 1 2 4 6 5 4 3 3 3 4 5 5 4 5 5 6 6
3 3 3 3 2 5 8 8 6 5 5 2 5 6 9 8 8 8 7 6 5 4 4 3 1 1 1 2 2 3 5 4 2 2 1 1 3 3 4 5 6 6 6 6
3 2 2 5 5 4 10 11 8 6 6 4 4 7 8 9 8 8 7 6 6 5 4 4 4 4 2 3 2 2 4 3 2 2 1 1 3 4 4 4 4 5 6 6
4 1 4 6 8 7 5 8 9 8 7 7 5 7 9 9 9 9 8 7 6 6 5 4 4 1 1 3 4 3 3 2 3 4 3 2 3 3 3 3 3 4 4 3
8 8 7 5 6 5 5 1 6 8 9 9 8 8 9 9 9 9 8 7 7 7 6 6 5 3 4 4 4 5 4 3 4 1 2 2 2 2 2 3 3 3 3 3
Wind_Direction
251 291 37 21 2 330 319 310 306 95 95 49 96 125 118 70 37 19 10 7 9 6 360 8 358 355 351 349 343 336 328 324 319 309 300 298 294 287 265 246 239 233 233 229
199 89 45 359 329 308 300 303 313 90 86 358 204 165 125 96 62 33 13 6 8 1 355 1 356 356 352 348 342 333 332 328 324 313 305 289 287 282 268 254 242 234 231 222
57 63 18 321 331 337 317 342 344 337 336 267 251 200 148 129 86 48 26 16 9 360 355 353 352 354 349 348 345 338 334 330 325 321 311 304 297 289 283 266 252 235 229 224
78 60 337 314 5 354 332 24 332 302 282 248 219 255 140 135 81 39 24 18 9 2 356 352 354 355 353 352 347 340 339 337 332 328 319 310 296 292 293 295 282 272 248 229
99 46 355 350 16 342 331 331 293 275 266 273 245 263 129 113 34 23 16 12 10 3 357 358 358 354 354 352 349 344 345 344 342 336 325 315 306 301 299 300 291 279 267 250
96 86 32 358 320 271 288 275 254 244 254 257 250 282 104 59 22 8 7 11 8 1 359 1 358 356 354 353 353 348 349 347 344 342 339 334 324 319 316 311 305 301 280 261
162 140 105 355 316 231 276 304 289 233 214 189 61 52 82 65 35 12 5 8 8 7 3 1 1 359 356 358 358 356 358 355 352 350 350 347 338 328 320 312 304 301 294 284
212 134 81 37 8 334 317 311 326 320 333 127 154 83 99 85 65 27 12 13 8 8 7 1 1 359 356 359 0 0 359 358 358 355 352 350 352 344 330 321 320 324 311 294
344 98 103 57 360 335 329 351 349 302 293 289 122 116 131 131 77 31 13 14 11 6 5 3 0 2 359 358 356 0 1 2 359 357 352 351 353 352 348 347 346 342 333 332
327 107 115 123 241 197 330 321 305 298 337 326 69 99 93 80 30 17 11 10 8 2 1 5 5 8 360 353 348 5 9 7 3 360 356 354 355 354 352 359 2 360 360 5
308 250 152 185 33 10 338 315 332 300 292 328 337 59 74 64 37 5 6 11 3 3 1 6 9 11 4 2 4 18 16 15 6 2 359 358 6 5 9 11 8 6 9 17
338 305 161 119 95 74 354 355 338 330 342 316 290 99 99 110 88 19 13 8 2 4 7 20 18 13 8 8 9 19 18 16 12 6 6 13 20 18 20 21 17 12 17 19
349 294 253 147 153 185 195 60 323 303 284 279 324 111 142 145 118 58 25 0 355 1 15 33 16 13 6 8 12 17 19 14 21 15 12 17 23 21 22 21 20 18 22 25
318 278 352 11 34 28 218 200 258 287 296 323 31 95 160 155 139 82 20 341 352 13 17 31 19 15 7 18 23 19 19 19 34 31 23 19 21 21 22 21 22 22 22 28
269 294 33 51 8 299 286 270 252 261 290 312 1 352 74 124 126 158 268 333 3 16 17 24 28 28 7 34 38 27 27 31 39 39 31 20 21 20 21 23 25 28 26 30
258 297 276 246 210 250 263 253 241 250 263 276 287 278 129 123 148 223 271 15 0 20 21 15 27 37 6 35 45 32 33 39 46 46 36 23 24 20 20 22 23 26 27 25
235 282 302 299 164 258 265 236 223 225 232 245 262 259 135 166 195 226 300 321 342 27 26 18 20 37 359 46 51 42 41 46 47 45 43 33 28 26 25 22 21 23 25 20
302 296 293 288 268 277 93 83 162 234 242 232 238 174 165 190 183 208 231 266 336 35 30 21 7 6 18 55 45 48 73 65 50 37 41 41 33 23 21 24 25 22 18 14
313 313 293 295 310 287 133 136 158 232 262 229 216 202 182 181 203 223 196 179 63 45 27 20 350 345 35 51 36 22 61 75 58 37 36 43 38 27 18 18 21 17 10 11
247 276 278 299 299 329 103 115 126 239 271 206 192 188 180 186 229 211 156 148 145 100 44 1 330 8 32 38 30 11 61 71 61 42 36 40 44 38 25 15 9 8 11 10
193 213 233 263 278 324 114 127 148 248 17 102 173 179 180 198 212 114 131 140 143 135 121 308 316 43 35 15 357 42 64 69 67 54 40 36 36 52 46 11 360 9 12 15
239 227 217 233 259 229 140 159 207 271 54 177 187 183 183 192 159 134 143 147 160 165 161 226 310 42 85 34 351 75 84 86 86 76 57 57 51 36 38 24 9 16 15 18
227 300 334 308 348 125 184 210 238 285 294 245 185 182 181 186 175 165 167 170 176 188 169 176 238 276 211 126 46 66 108 114 119 105 89 92 100 89 46 28 23 19 18 18
189 154 277 290 282 235 204 217 238 247 263 268 198 182 183 188 183 177 181 181 181 195 180 178 215 232 197 124 129 112 124 155 178 176 190 137 83 76 75 46 32 39 25 17
343 166 244 267 276 265 209 206 223 231 235 241 218 195 188 190 191 186 190 193 188 186 179 190 223 224 202 178 168 148 154 203 221 203 181 144 115 99 94 94 50 52 74 60
275 252 236 260 330 351 0 119 213 227 226 227 219 206 194 192 197 195 196 192 190 190 189 191 191 201 242 211 170 157 163 230 265 237 119 113 136 144 151 149 135 61 84 103
Height
1518 1519 1525 1527 1525 1526 1524 1526 1528 1531 1533 1536 1542 1548 1551 1554 1556 1556 1555 1555 1554 1553 1552 1549 1546 1543 1540 1537 1534 1531 1528 1526 1524 1522 1520 1519 1518 1517 1517 1517 1517 1518 1520 1521
1520 1525 1527 1526 1526 1525 1525 1527 1527 1530 1532 1536 1541 1545 1549 1553 1556 1557 1557 1556 1554 1553 1551 1548 1545 1542 1539 1535 1532 1528 1526 1523 1521 1519 1517 1515 1514 1513 1513 1513 1513 1513 1515 1516
1522 1531 1528 1528 1526 1530 1527 1530 1533 1535 1534 1536 1540 1546 1549 1552 1554 1556 1556 1556 1555 1554 1551 1548 1545 1541 1537 1534 1530 1526 1523 1520 1518 1516 1514 1512 1511 1510 1509 1509 1509 1509 1510 1511
1527 1530 1530 1529 1530 1535 1535 1533 1535 1536 1540 1539 1539 1551 1550 1550 1553 1555 1556 1556 1555 1553 1551 1547 1544 1540 1536 1532 1528 1524 1521 1517 1515 1512 1510 1509 1507 1506 1506 1505 1504 1504 1505 1506
1530 1532 1532 1533 1536 1539 1537 1535 1535 1535 1537 1539 1535 1543 1555 1549 1554 1555 1556 1556 1555 1553 1550 1547 1544 1540 1536 1531 1527 1523 1519 1515 1512 1510 1508 1506 1504 1503 1502 1501 1500 1500 1500 1501
1532 1534 1536 1537 1537 1537 1536 1534 1532 1532 1535 1545 1535 1541 1556 1554 1556 1556 1556 1555 1554 1552 1550 1547 1543 1539 1535 1531 1526 1522 1518 1514 1511 1508 1505 1503 1501 1500 1498 1497 1496 1496 1496 1497
1533 1533 1536 1538 1536 1533 1533 1537 1542 1543 1548 1545 1535 1542 1556 1553 1554 1556 1556 1555 1554 1552 1549 1546 1543 1539 1534 1530 1526 1522 1518 1514 1510 1507 1504 1502 1499 1498 1496 1494 1493 1492 1492 1493
1527 1537 1538 1539 1541 1542 1535 1537 1549 1556 1547 1543 1538 1545 1554 1551 1554 1555 1555 1555 1554 1552 1549 1546 1542 1539 1535 1531 1526 1522 1518 1514 1511 1507 1504 1501 1498 1496 1494 1493 1492 1490 1490 1490
1524 1541 1540 1541 1541 1541 1539 1536 1536 1544 1537 1538 1538 1545 1550 1550 1552 1553 1554 1554 1553 1551 1549 1546 1542 1539 1535 1531 1527 1524 1519 1516 1512 1508 1504 1501 1498 1496 1494 1492 1491 1489 1488 1488
1524 1536 1539 1540 1541 1540 1540 1541 1539 1543 1551 1553 1544 1544 1551 1551 1552 1553 1553 1553 1552 1550 1548 1545 1542 1539 1536 1532 1529 1525 1521 1517 1513 1509 1505 1502 1499 1496 1494 1492 1491 1489 1488 1487
1527 1530 1539 1539 1540 1544 1541 1539 1540 1540 1542 1556 1561 1559 1547 1550 1552 1552 1552 1552 1551 1550 1547 1545 1542 1540 1536 1533 1530 1526 1523 1519 1515 1511 1508 1504 1501 1498 1496 1494 1492 1491 1489 1488
1531 1531 1532 1538 1541 1543 1543 1545 1546 1552 1548 1544 1552 1559 1547 1549 1550 1551 1551 1551 1550 1549 1547 1545 1543 1540 1537 1534 1531 1528 1524 1521 1517 1513 1510 1507 1504 1501 1498 1496 1494 1492 1491 1489
1533 1535 1539 1547 1550 1546 1543 1545 1546 1546 1545 1542 1551 1556 1546 1547 1549 1550 1551 1550 1549 1548 1546 1544 1542 1540 1537 1535 1532 1529 1526 1523 1519 1516 1513 1510 1507 1503 1501 1499 1497 1495 1493 1491
1540 1533 1539 1550 1546 1540 1541 1543 1545 1547 1547 1543 1542 1545 1543 1544 1547 1548 1549 1549 1548 1547 1546 1544 1542 1540 1538 1536 1533 1531 1528 1525 1521 1518 1515 1512 1509 1506 1504 1501 1499 1497 1495 1493
1539 1533 1533 1536 1537 1538 1540 1541 1542 1544 1542 1544 1541 1542 1540 1542 1545 1547 1548 1547 1547 1546 1545 1544 1542 1540 1538 1536 1534 1532 1529 1526 1523 1520 1517 1514 1512 1509 1507 1504 1501 1499 1497 1495
1536 1534 1533 1535 1534 1536 1537 1535 1537 1539 1539 1540 1540 1540 1537 1541 1544 1546 1545 1546 1546 1545 1545 1544 1542 1540 1539 1537 1535 1533 1530 1528 1525 1522 1519 1517 1514 1511 1509 1506 1503 1501 1499 1497
1532 1534 1536 1533 1530 1534 1534 1526 1529 1533 1533 1536 1539 1536 1536 1540 1542 1544 1544 1545 1545 1544 1544 1543 1542 1540 1539 1537 1535 1533 1531 1529 1527 1524 1521 1519 1516 1513 1511 1508 1506 1503 1501 1499
1532 1533 1535 1535 1532 1541 1530 1521 1523 1527 1528 1529 1531 1533 1536 1538 1541 1542 1543 1544 1544 1544 1543 1543 1542 1540 1539 1537 1536 1534 1532 1530 1528 1526 1523 1521 1518 1515 1513 1510 1508 1505 1503 1501
1535 1536 1539 1535 1538 1527 1526 1522 1525 1529 1528 1524 1527 1530 1534 1537 1539 1540 1540 1542 1543 1543 1543 1542 1541 1540 1539 1537 1536 1535 1533 1531 1529 1527 1525 1522 1520 1517 1515 1512 1510 1508 1506 1504
1537 1537 1541 1538 1542 1536 1527 1522 1524 1529 1528 1518 1522 1527 1532 1535 1538 1536 1537 1540 1541 1542 1542 1541 1541 1540 1539 1538 1536 1535 1534 1531 1530 1528 1526 1524 1522 1519 1517 1514 1512 1510 1508 1506
1538 1538 1542 1543 1541 1524 1523 1524 1527 1535 1528 1519 1521 1525 1529 1532 1535 1535 1536 1538 1540 1541 1541 1541 1540 1539 1538 1537 1537 1535 1534 1532 1531 1529 1527 1526 1523 1521 1519 1516 1514 1513 1511 1509
1527 1529 1530 1532 1536 1533 1523 1524 1526 1524 1520 1521 1522 1524 1527 1530 1533 1534 1536 1537 1539 1539 1540 1540 1539 1539 1538 1537 1536 1535 1534 1533 1531 1530 1529 1527 1525 1523 1521 1519 1516 1515 1513 1511
1522 1521 1522 1523 1525 1520 1519 1520 1520 1520 1520 1519 1521 1523 1525 1528 1530 1532 1534 1536 1537 1538 1539 1539 1538 1538 1538 1537 1536 1535 1534 1533 1532 1531 1530 1528 1526 1525 1522 1520 1518 1516 1514 1513
1513 1516 1519 1520 1515 1514 1515 1516 1517 1518 1518 1518 1519 1521 1523 1526 1528 1530 1532 1534 1535 1536 1537 1537 1537 1537 1537 1536 1535 1535 1533 1533 1532 1531 1530 1529 1528 1526 1524 1522 1520 1518 1516 1515
1516 1517 1519 1518 1514 1511 1511 1512 1513 1515 1516 1517 1517 1519 1521 1523 1525 1527 1530 1532 1533 1534 1535 1535 1536 1536 1536 1535 1534 1534 1533 1532 1532 1531 1530 1530 1528 1527 1525 1524 1522 1520 1519 1517
1515 1513 1516 1516 1512 1511 1511 1510 1511 1512 1512 1513 1515 1516 1518 1520 1522 1524 1526 1528 1530 1531 1532 1533 1534 1534 1534 1534 1533 1533 1532 1532 1532 1532 1531 1530 1529 1527 1526 1525 1523 1522 1521 1519